When you browse on this site, cookies collect data to enhance your experience and personalize the content and advertising you see.
Visit our Privacy Policy to learn more. By continuing to use the site, you agree to this use of cookies and data.
  • In Germany
  • List of Countries
  • For 7 days
  • Water Temperature
  • Satellite Maps
  • Weather Map
  • Weather Widgets
  • user-avatar
    Login

    Hourly Weather Gorzen

    Today, 21 February, Thursday

    Time Temperature Precipitation Wind Pressure Humidity
    00:00 +1°C° 0 mm 3 mps 755 mmHg 91%
    01:00 0°C° 0 mm 3 mps 755 mmHg 94%
    02:00 +1°C° 0 mm 3 mps 755 mmHg 95%
    03:00 +1°C° 0 mm 3 mps 755 mmHg 95%
    04:00 +2°C° 0 mm 2 mps 755 mmHg 96%
    05:00 +2°C° 0.3 mm 2 mps 755 mmHg 96%
    06:00 +1°C° 0.3 mm 3 mps 755 mmHg 96%
    07:00 +2°C° 0.3 mm 3 mps 755 mmHg 97%
    08:00 +2°C° 0.3 mm 3 mps 755 mmHg 96%
    09:00 +3°C° 0.3 mm 4 mps 755 mmHg 95%
    10:00 +3°C° 0.3 mm 4 mps 755 mmHg 94%
    11:00 +3°C° 0.9 mm 4 mps 754 mmHg 94%
    12:00 +3°C° 0.9 mm 4 mps 754 mmHg 93%
    13:00 +3°C° 0.9 mm 4 mps 754 mmHg 92%
    14:00 +4°C° 0.8 mm 4 mps 754 mmHg 93%
    15:00 +3°C° 0.8 mm 5 mps 753 mmHg 93%
    16:00 +3°C° 0.8 mm 5 mps 753 mmHg 93%
    17:00 +4°C° 0.8 mm 4 mps 753 mmHg 94%
    18:00 +4°C° 0.8 mm 4 mps 753 mmHg 95%
    19:00 +4°C° 0.8 mm 4 mps 752 mmHg 96%
    20:00 +4°C° 0.7 mm 4 mps 752 mmHg 96%
    21:00 +4°C° 0.7 mm 4 mps 753 mmHg 96%
    22:00 +4°C° 0.7 mm 4 mps 753 mmHg 97%
    23:00 +2°C° 0.5 mm 5 mps 753 mmHg 94%

    Tomorrow, 22 February, Friday

    Time Temperature Precipitation Wind Pressure Humidity
    00:00 -1°C° 0.5 mm 6 mps 754 mmHg 91%
    01:00 -2°C° 0.5 mm 7 mps 754 mmHg 88%
    02:00 -3°C° 0.1 mm 7 mps 755 mmHg 85%
    03:00 -3°C° 0.1 mm 7 mps 756 mmHg 81%
    04:00 -4°C° 0.1 mm 6 mps 757 mmHg 77%
    05:00 -5°C° 0 mm 6 mps 758 mmHg 73%
    06:00 -5°C° 0 mm 6 mps 760 mmHg 68%
    07:00 -5°C° 0 mm 6 mps 761 mmHg 63%
    08:00 -5°C° 0 mm 6 mps 762 mmHg 59%
    09:00 -5°C° 0 mm 5 mps 763 mmHg 55%
    10:00 -4°C° 0 mm 5 mps 765 mmHg 51%
    11:00 -4°C° 0 mm 5 mps 765 mmHg 47%
    12:00 -3°C° 0 mm 4 mps 766 mmHg 44%
    13:00 -2°C° 0 mm 4 mps 766 mmHg 41%
    14:00 -3°C° 0 mm 4 mps 766 mmHg 42%
    15:00 -3°C° 0 mm 4 mps 767 mmHg 44%
    16:00 -3°C° 0 mm 4 mps 767 mmHg 45%
    17:00 -4°C° 0 mm 4 mps 768 mmHg 47%
    18:00 -4°C° 0 mm 4 mps 768 mmHg 50%
    19:00 -5°C° 0 mm 3 mps 769 mmHg 53%
    20:00 -5°C° 0 mm 3 mps 769 mmHg 51%
    21:00 -5°C° 0 mm 3 mps 770 mmHg 49%
    22:00 -5°C° 0 mm 3 mps 770 mmHg 47%
    23:00 -5°C° 0 mm 3 mps 770 mmHg 45%

    Day after tomorrow, 23 February, Saturday

    Time Temperature Precipitation Wind Pressure Humidity
    00:00 -4°C° 0 mm 2 mps 770 mmHg 44%
    01:00 -4°C° 0 mm 2 mps 770 mmHg 43%
    02:00 -2°C° 0 mm 1 mps 770 mmHg 43%
    03:00 -2°C° 0 mm 1 mps 770 mmHg 43%
    04:00 -2°C° 0 mm 1 mps 770 mmHg 44%
    05:00 -3°C° 0 mm 1 mps 771 mmHg 44%
    06:00 -3°C° 0 mm 1 mps 771 mmHg 45%
    07:00 -3°C° 0 mm 1 mps 771 mmHg 46%
    08:00 -3°C° 0 mm 0 mps 771 mmHg 42%
    09:00 -3°C° 0 mm 0 mps 771 mmHg 39%
    10:00 -2°C° 0 mm 0 mps 771 mmHg 35%
    11:00 -1°C° 0 mm 0 mps 771 mmHg 33%
    12:00 0°C° 0 mm 1 mps 771 mmHg 31%
    13:00 +1°C° 0 mm 1 mps 771 mmHg 29%
    14:00 +1°C° 0 mm 1 mps 771 mmHg 30%
    15:00 -1°C° 0 mm 2 mps 770 mmHg 31%
    16:00 -1°C° 0 mm 2 mps 770 mmHg 32%
    17:00 -1°C° 0 mm 2 mps 770 mmHg 35%
    18:00 0°C° 0 mm 1 mps 770 mmHg 37%
    19:00 0°C° 0 mm 1 mps 769 mmHg 40%
    20:00 -2°C° 0 mm 2 mps 769 mmHg 41%
    21:00 -2°C° 0 mm 2 mps 769 mmHg 42%
    22:00 -2°C° 0 mm 2 mps 769 mmHg 43%
    23:00 -2°C° 0 mm 2 mps 769 mmHg 44%

    24 February, Sunday

    Time Temperature Precipitation Wind Pressure Humidity
    00:00 -4°C° 0 mm 3 mps 768 mmHg 45%
    01:00 -4°C° 0 mm 3 mps 768 mmHg 45%
    02:00 -4°C° 0 mm 3 mps 768 mmHg 45%
    03:00 -4°C° 0 mm 3 mps 767 mmHg 45%
    04:00 -4°C° 0 mm 3 mps 767 mmHg 45%
    05:00 -2°C° 0 mm 3 mps 767 mmHg 45%
    06:00 -3°C° 0 mm 4 mps 766 mmHg 46%
    07:00 -3°C° 0 mm 4 mps 766 mmHg 46%
    08:00 -2°C° 0 mm 4 mps 766 mmHg 46%
    09:00 -1°C° 0 mm 4 mps 766 mmHg 45%
    10:00 0°C° 0 mm 4 mps 765 mmHg 45%
    11:00 +1°C° 0 mm 4 mps 765 mmHg 47%
    12:00 +3°C° 0 mm 4 mps 765 mmHg 49%
    13:00 +4°C° 0 mm 4 mps 764 mmHg 51%
    14:00 +3°C° 0 mm 3 mps 764 mmHg 56%
    15:00 +3°C° 0 mm 3 mps 763 mmHg 62%
    16:00 +2°C° 0 mm 3 mps 763 mmHg 67%
    17:00 +2°C° 0 mm 3 mps 763 mmHg 71%
    18:00 +1°C° 0 mm 3 mps 762 mmHg 75%
    19:00 +1°C° 0 mm 3 mps 762 mmHg 78%
    20:00 +1°C° 0 mm 3 mps 762 mmHg 80%
    21:00 0°C° 0 mm 4 mps 762 mmHg 81%
    22:00 0°C° 0 mm 4 mps 761 mmHg 83%
    23:00 0°C° 0 mm 4 mps 762 mmHg 86%

    25 February, Monday

    Time Temperature Precipitation Wind Pressure Humidity
    00:00 0°C° 0 mm 4 mps 762 mmHg 90%
    01:00 +1°C° 0 mm 5 mps 762 mmHg 94%
    02:00 +1°C° 0 mm 5 mps 762 mmHg 93%
    03:00 +1°C° 0 mm 5 mps 762 mmHg 93%
    04:00 +1°C° 0 mm 5 mps 763 mmHg 92%
    05:00 0°C° 0 mm 5 mps 763 mmHg 91%
    06:00 0°C° 0 mm 5 mps 764 mmHg 91%
    07:00 -1°C° 0 mm 5 mps 764 mmHg 90%
    08:00 0°C° 0 mm 5 mps 765 mmHg 84%
    09:00 +1°C° 0 mm 6 mps 765 mmHg 79%
    10:00 +2°C° 0 mm 6 mps 766 mmHg 73%
    11:00 +3°C° 0 mm 6 mps 766 mmHg 68%
    12:00 +4°C° 0 mm 6 mps 766 mmHg 64%
    13:00 +6°C° 0 mm 5 mps 766 mmHg 59%
    14:00 +5°C° 0 mm 5 mps 765 mmHg 60%
    15:00 +5°C° 0 mm 4 mps 765 mmHg 61%
    16:00 +5°C° 0 mm 3 mps 765 mmHg 62%
    17:00 +4°C° 0 mm 3 mps 765 mmHg 66%
    18:00 +3°C° 0 mm 3 mps 765 mmHg 70%
    19:00 +2°C° 0 mm 3 mps 766 mmHg 74%
    20:00 +2°C° 0 mm 3 mps 765 mmHg 76%
    21:00 +1°C° 0 mm 3 mps 765 mmHg 77%
    22:00 +1°C° 0 mm 3 mps 764 mmHg 79%
    23:00 0°C° 0 mm 4 mps 763 mmHg 78%

    26 February, Tuesday

    Time Temperature Precipitation Wind Pressure Humidity
    00:00 0°C° 0 mm 4 mps 763 mmHg 77%
    01:00 0°C° 0 mm 5 mps 762 mmHg 75%
    02:00 0°C° 0 mm 5 mps 761 mmHg 79%
    03:00 0°C° 0 mm 5 mps 760 mmHg 83%
    04:00 0°C° 0 mm 5 mps 760 mmHg 86%
    05:00 +1°C° 0 mm 5 mps 759 mmHg 87%
    06:00 +1°C° 0 mm 5 mps 759 mmHg 88%
    07:00 +1°C° 0 mm 5 mps 759 mmHg 89%
    08:00 +2°C° 0 mm 5 mps 758 mmHg 84%
    09:00 +3°C° 0 mm 5 mps 758 mmHg 80%
    10:00 +3°C° 0 mm 5 mps 758 mmHg 75%
    11:00 +5°C° 0 mm 5 mps 757 mmHg 71%
    12:00 +6°C° 0 mm 5 mps 757 mmHg 67%
    13:00 +7°C° 0 mm 6 mps 756 mmHg 63%
    14:00 +7°C° 0 mm 5 mps 756 mmHg 65%
    15:00 +8°C° 0 mm 5 mps 755 mmHg 66%
    16:00 +8°C° 0 mm 5 mps 755 mmHg 67%
    17:00 +7°C° 0 mm 5 mps 755 mmHg 72%
    18:00 +6°C° 0 mm 5 mps 755 mmHg 78%
    19:00 +5°C° 0 mm 4 mps 755 mmHg 83%
    20:00 +4°C° 0 mm 4 mps 755 mmHg 86%
    21:00 +4°C° 0 mm 4 mps 755 mmHg 89%
    22:00 +3°C° 0 mm 4 mps 756 mmHg 92%
    23:00 +1°C° 0 mm 4 mps 756 mmHg 93%
    Show more